TimeCST,TemperatureF,Dew PointF,Humidity,Sea Level PressureIn,VisibilityMPH,Wind Direction,Wind SpeedMPH,Gust SpeedMPH,PrecipitationIn,Events,Conditions,WindDirDegrees,DateUTC
12:15 AM,37.8,36.3,95,29.92,10.0,WSW,4.6,-,N/A,,Clear,250,2013-11-09 06:15:00
12:35 AM,34.2,34.0,99,29.92,10.0,West,5.8,-,N/A,,Clear,280,2013-11-09 06:35:00
12:55 AM,34.3,34.3,100,29.93,10.0,West,4.6,-,N/A,,Clear,280,2013-11-09 06:55:00
1:15 AM,33.4,33.1,99,29.93,10.0,WNW,6.9,-,N/A,,Clear,290,2013-11-09 07:15:00
1:35 AM,34.2,34.0,99,29.94,10.0,West,5.8,-,N/A,,Clear,280,2013-11-09 07:35:00
1:55 AM,35.2,34.5,97,29.94,10.0,WSW,3.5,-,N/A,,Clear,250,2013-11-09 07:55:00
2:15 AM,36.3,33.8,91,29.94,10.0,West,5.8,-,N/A,,Clear,260,2013-11-09 08:15:00
2:35 AM,34.5,33.3,95,29.96,10.0,West,8.1,-,N/A,,Clear,260,2013-11-09 08:35:00
2:55 AM,34.9,32.7,92,29.96,10.0,West,9.2,-,N/A,,Clear,270,2013-11-09 08:55:00
3:15 AM,34.5,33.1,94,29.96,10.0,West,6.9,-,N/A,,Clear,280,2013-11-09 09:15:00
3:35 AM,34.5,33.1,94,29.97,10.0,West,6.9,-,N/A,,Clear,280,2013-11-09 09:35:00
3:55 AM,35.2,33.3,92,29.97,10.0,West,9.2,-,N/A,,Clear,280,2013-11-09 09:55:00
4:15 AM,36.1,33.8,91,29.98,10.0,West,8.1,-,N/A,,Clear,270,2013-11-09 10:15:00
4:35 AM,40.3,34.2,79,29.99,10.0,West,8.1,-,N/A,,Clear,280,2013-11-09 10:35:00
4:55 AM,35.2,33.1,92,30.00,10.0,West,10.4,-,N/A,,Clear,270,2013-11-09 10:55:00
5:15 AM,42.8,34.7,73,30.00,10.0,West,12.7,-,N/A,,Clear,280,2013-11-09 11:15:00
5:35 AM,40.8,34.3,78,30.01,10.0,West,12.7,-,N/A,,Clear,270,2013-11-09 11:35:00
5:55 AM,40.1,34.0,79,30.02,10.0,West,12.7,-,N/A,,Clear,280,2013-11-09 11:55:00
6:15 AM,39.4,33.8,80,30.03,10.0,West,12.7,-,N/A,,Clear,280,2013-11-09 12:15:00
6:35 AM,36.5,33.3,88,30.04,10.0,WNW,9.2,-,N/A,,Clear,290,2013-11-09 12:35:00
6:55 AM,35.8,33.1,90,30.05,10.0,West,9.2,-,N/A,,Clear,270,2013-11-09 12:55:00
7:15 AM,37.4,33.3,85,30.05,10.0,West,9.2,-,N/A,,Clear,260,2013-11-09 13:15:00
7:35 AM,37.9,33.1,83,30.07,10.0,West,5.8,-,N/A,,Clear,280,2013-11-09 13:35:00
7:55 AM,42.3,34.0,72,30.08,10.0,West,6.9,-,N/A,,Clear,280,2013-11-09 13:55:00
8:15 AM,42.6,34.9,74,30.10,10.0,West,10.4,-,N/A,,Clear,280,2013-11-09 14:15:00
8:35 AM,44.4,34.7,69,30.11,10.0,West,10.4,-,N/A,,Clear,270,2013-11-09 14:35:00
8:55 AM,45.1,36.1,71,30.11,10.0,West,9.2,-,N/A,,Clear,280,2013-11-09 14:55:00
9:15 AM,46.2,36.7,69,30.12,10.0,West,12.7,-,N/A,,Clear,280,2013-11-09 15:15:00
9:35 AM,47.3,38.1,70,30.12,10.0,WNW,10.4,-,N/A,,Clear,290,2013-11-09 15:35:00
9:55 AM,50.5,39.4,66,30.13,10.0,WNW,10.4,-,N/A,,Clear,300,2013-11-09 15:55:00
10:15 AM,52.9,38.1,57,30.14,10.0,WNW,12.7,18.4,N/A,,Clear,300,2013-11-09 16:15:00
10:35 AM,53.8,37.0,53,30.15,10.0,WNW,13.8,-,N/A,,Clear,290,2013-11-09 16:35:00
10:55 AM,55.0,36.9,50,30.16,10.0,WNW,12.7,-,N/A,,Clear,290,2013-11-09 16:55:00
11:15 AM,56.1,36.1,47,30.16,10.0,WNW,12.7,-,N/A,,Clear,300,2013-11-09 17:15:00
11:35 AM,57.0,35.4,44,30.16,10.0,WNW,12.7,-,N/A,,Clear,300,2013-11-09 17:35:00
11:55 AM,58.1,35.6,43,30.16,10.0,WNW,11.5,16.1,N/A,,Clear,290,2013-11-09 17:55:00
12:15 PM,58.5,36.1,43,30.16,10.0,WNW,13.8,-,N/A,,Clear,300,2013-11-09 18:15:00
12:35 PM,58.5,35.4,42,30.15,10.0,WNW,10.4,-,N/A,,Clear,300,2013-11-09 18:35:00
12:55 PM,59.0,36.1,42,30.15,10.0,WNW,12.7,16.1,N/A,,Clear,300,2013-11-09 18:55:00
1:15 PM,59.0,35.6,42,30.15,10.0,WNW,15.0,19.6,N/A,,Clear,300,2013-11-09 19:15:00
1:35 PM,59.7,36.0,41,30.15,10.0,WNW,11.5,17.3,N/A,,Clear,290,2013-11-09 19:35:00
1:55 PM,60.1,36.7,42,30.16,10.0,WNW,12.7,16.1,N/A,,Clear,290,2013-11-09 19:55:00
2:15 PM,60.1,36.5,41,30.16,10.0,WNW,11.5,16.1,N/A,,Clear,300,2013-11-09 20:15:00
2:35 PM,59.9,36.1,41,30.16,10.0,WNW,12.7,-,N/A,,Clear,300,2013-11-09 20:35:00
2:55 PM,59.9,36.1,41,30.16,10.0,West,12.7,-,N/A,,Clear,280,2013-11-09 20:55:00
3:15 PM,59.9,36.3,41,30.17,10.0,NW,13.8,18.4,N/A,,Clear,310,2013-11-09 21:15:00
3:35 PM,59.4,36.7,43,30.17,10.0,WNW,11.5,17.3,N/A,,Clear,300,2013-11-09 21:35:00
3:55 PM,58.8,37.0,44,30.18,10.0,NW,11.5,-,N/A,,Clear,320,2013-11-09 21:55:00
4:15 PM,58.1,37.4,46,30.19,10.0,NW,11.5,-,N/A,,Clear,320,2013-11-09 22:15:00
4:35 PM,56.5,37.6,49,30.19,10.0,NW,8.1,-,N/A,,Clear,320,2013-11-09 22:35:00
4:55 PM,54.5,37.4,52,30.20,10.0,NNW,8.1,-,N/A,,Clear,330,2013-11-09 22:55:00
5:15 PM,52.9,36.1,53,30.20,10.0,NNW,5.8,-,N/A,,Clear,330,2013-11-09 23:15:00
5:35 PM,50.2,36.3,59,30.21,10.0,NNW,6.9,-,N/A,,Clear,330,2013-11-09 23:35:00
5:55 PM,50.0,36.0,59,30.22,10.0,NNW,6.9,-,N/A,,Clear,340,2013-11-09 23:55:00
6:15 PM,46.0,36.0,68,30.23,10.0,Calm,Calm,-,N/A,,Clear,0,2013-11-10 00:15:00
6:35 PM,46.0,36.1,68,30.25,10.0,Calm,Calm,-,N/A,,Clear,0,2013-11-10 00:35:00
6:55 PM,42.8,35.6,76,30.26,10.0,Calm,Calm,-,N/A,,Clear,0,2013-11-10 00:55:00
7:15 PM,41.9,35.2,77,30.26,10.0,WNW,3.5,-,N/A,,Clear,290,2013-11-10 01:15:00
7:35 PM,42.1,35.4,77,30.27,10.0,Calm,Calm,-,N/A,,Clear,0,2013-11-10 01:35:00
8:35 PM,40.3,34.9,81,30.29,10.0,Calm,Calm,-,N/A,,Clear,0,2013-11-10 02:35:00
8:55 PM,39.9,34.9,82,30.30,10.0,Calm,Calm,-,N/A,,Clear,0,2013-11-10 02:55:00
9:15 PM,38.5,34.3,85,30.31,10.0,Calm,Calm,-,N/A,,Clear,0,2013-11-10 03:15:00
9:35 PM,42.4,35.6,77,30.32,10.0,NNW,6.9,-,N/A,,Clear,330,2013-11-10 03:35:00
9:55 PM,42.3,35.1,76,30.33,10.0,NNW,6.9,-,N/A,,Clear,330,2013-11-10 03:55:00
10:15 PM,41.4,34.3,76,30.33,10.0,North,4.6,-,N/A,,Clear,350,2013-11-10 04:15:00
10:35 PM,39.7,34.0,80,30.34,10.0,North,3.5,-,N/A,,Clear,350,2013-11-10 04:35:00
10:55 PM,39.7,33.8,79,30.34,10.0,NNW,3.5,-,N/A,,Clear,340,2013-11-10 04:55:00
11:15 PM,39.6,33.3,78,30.35,10.0,NNW,3.5,-,N/A,,Clear,340,2013-11-10 05:15:00
11:35 PM,38.7,32.9,80,30.35,10.0,Calm,Calm,-,N/A,,Clear,0,2013-11-10 05:35:00
11:55 PM,37.6,32.4,81,30.36,10.0,NNW,3.5,-,N/A,,Clear,340,2013-11-10 05:55:00